Texarkana, AR

1:04 PM CDT on June 22, 2017 (GMT -0500)
Texarkana Regional-Webb

Weather History for KTXK - March, 2014

Change the Weather History Date:

Thursday, March 27, 2014

  Actual Average Record
Temperature  
Mean Temperature 59 °F 59 °F  
Max Temperature 65 °F 71 °F 88 °F (1972)
Min Temperature 52 °F 47 °F 21 °F (1955)
Degree Days  
Heating Degree Days 6 7  
Month to date heating degree days 377 274  
Since 1 July heating degree days 2845 2468  
Cooling Degree Days 0 1  
Month to date cooling degree days 2 15  
Year to date cooling degree days 2 19  
Growing Degree Days 8 (Base 50)    
Moisture  
Dew Point 53 °F    
Average Humidity 72    
Maximum Humidity 93    
Minimum Humidity 50    
Precipitation  
Precipitation 0.07 in 0.13 in 1.53 in (1931)
Month to date precipitation 2.73 3.66  
Year to date precipitation 6.65 11.05  
Snow  
Snow 0.00 in - - ()
Month to date snowfall T  
Since 1 July snowfall 1.7  
Snow Depth 0.00 in    
Sea Level Pressure  
Sea Level Pressure 29.86 in    
Wind  
Wind Speed 12 mph (South)    
Max Wind Speed 23 mph    
Max Gust Speed 33 mph    
Visibility 9 miles    
Events Rain , Thunderstorm    
T = Trace of Precipitation, MM = Missing Value Source: NWS Daily Summary

Daily Weather History Graph

Daily Weather History Graph

Search for Another Location

Airport or City:

Trip Planner

Search our weather history database for the weather conditions in past years. The results will help you decide how hot, cold, wet, or windy it might be!

Date:

Astronomy

Mar. 27, 2014 Rise Set
Actual Time 7:10 AM CDT 7:32 PM CDT
Civil Twilight 6:45 AM CDT 7:57 PM CDT
Nautical Twilight 6:16 AM CDT 8:26 PM CDT
Astronomical Twilight 5:46 AM CDT 8:56 PM CDT
Moon 4:52 AM CDT (3/27) 4:29 PM CDT (3/27)
Length of Visible Light 13h 12m
Length of Day
12h 22m
Waning Crescent, 13% of the Moon is Illuminated
Mar 27
Waning Crescent
Mar 30
New
Apr 7
First Quarter
Apr 15
Full
Apr 22
Last Quarter

Hourly Weather History & Observations

Time (CDT) Temp. Dew Point Humidity Pressure Visibility Wind Dir Wind Speed Gust Speed Precip Events Conditions
12:53 AM 54.0 °F 36.0 °F 51% 30.00 in 10.0 mi South 11.5 mph 19.6 mph N/A   Overcast
1:42 AM 53.6 °F 37.4 °F 54% 29.99 in 10.0 mi South 11.5 mph 20.7 mph N/A   Overcast
1:53 AM 53.1 °F 37.9 °F 57% 29.99 in 10.0 mi South 12.7 mph 20.7 mph N/A   Overcast
2:53 AM 53.1 °F 39.9 °F 61% 29.96 in 10.0 mi South 13.8 mph 25.3 mph N/A   Overcast
3:53 AM 53.1 °F 42.1 °F 66% 29.96 in 10.0 mi South 15.0 mph 20.7 mph N/A   Overcast
4:53 AM 52.0 °F 43.0 °F 71% 29.93 in 10.0 mi SSE 10.4 mph - N/A   Overcast
5:53 AM 52.0 °F 44.1 °F 74% 29.93 in 10.0 mi SSE 8.1 mph - N/A   Overcast
6:53 AM 53.1 °F 45.0 °F 74% 29.92 in 10.0 mi SSE 11.5 mph - N/A   Overcast
7:53 AM 53.1 °F 46.9 °F 80% 29.92 in 10.0 mi SSE 12.7 mph - N/A   Overcast
8:13 AM 53.6 °F 48.2 °F 82% 29.93 in 10.0 mi SSE 10.4 mph 18.4 mph N/A   Overcast
8:53 AM 54.0 °F 48.9 °F 83% 29.92 in 10.0 mi SSE 13.8 mph - N/A   Overcast
9:53 AM 57.0 °F 50.0 °F 77% 29.91 in 9.0 mi SSE 15.0 mph 23.0 mph N/A   Overcast
10:53 AM 59.0 °F 52.0 °F 78% 29.88 in 9.0 mi South 16.1 mph 23.0 mph N/A   Overcast
11:46 AM 60.8 °F 53.6 °F 77% 29.87 in 9.0 mi South 19.6 mph 32.2 mph N/A Thunderstorm Overcast
11:53 AM 60.1 °F 53.1 °F 78% 29.86 in 9.0 mi South 16.1 mph 27.6 mph N/A Thunderstorm Overcast
12:31 PM 59.0 °F 55.4 °F 88% 29.85 in 8.0 mi South 16.1 mph 23.0 mph 0.04 in   Overcast
12:53 PM 61.0 °F 55.9 °F 83% 29.84 in 9.0 mi South 16.1 mph 23.0 mph 0.04 in   Overcast
1:53 PM 62.1 °F 57.0 °F 84% 29.81 in 9.0 mi South 16.1 mph 23.0 mph 0.01 in Rain Light Rain
2:53 PM 63.0 °F 59.0 °F 87% 29.79 in 8.0 mi South 13.8 mph 24.2 mph 0.02 in Rain Light Rain
3:53 PM 64.0 °F 60.1 °F 87% 29.78 in 7.0 mi South 11.5 mph - 0.00 in   Overcast
4:53 PM 64.0 °F 60.1 °F 87% 29.78 in 8.0 mi South 11.5 mph 17.3 mph N/A   Overcast
5:53 PM 64.9 °F 61.0 °F 87% 29.77 in 10.0 mi South 12.7 mph - N/A   Overcast
6:08 PM 64.4 °F 60.8 °F 88% 29.77 in 10.0 mi South 12.7 mph - N/A   Overcast
6:53 PM 64.0 °F 61.0 °F 90% 29.76 in 6.0 mi South 15.0 mph - N/A   Overcast
7:53 PM 64.0 °F 61.0 °F 90% 29.76 in 10.0 mi South 11.5 mph - N/A   Overcast
8:53 PM 64.0 °F 61.0 °F 90% 29.77 in 10.0 mi South 11.5 mph - N/A   Overcast
9:08 PM 64.4 °F 60.8 °F 88% 29.79 in 10.0 mi South 10.4 mph - N/A   Overcast
9:53 PM 64.9 °F 62.1 °F 90% 29.80 in 10.0 mi South 8.1 mph - N/A   Overcast
10:46 PM 64.4 °F 62.6 °F 94% 29.80 in 10.0 mi South 6.9 mph - N/A   Overcast
10:53 PM 64.9 °F 62.1 °F 90% 29.80 in 10.0 mi South 6.9 mph - N/A   Overcast
11:53 PM 64.9 °F 62.1 °F 90% 29.81 in 8.0 mi Calm Calm - N/A   Overcast